Theta_e
338 342 342 340 339 340 336 334 331 329 329 328 328 326 325 326 325 327 326 325 325 326 326 324 322 322 319 317 317 316 315 316 312 313 311 313 310 310 313 314 314 314 312
338 341 341 341 340 338 336 333 332 330 331 329 327 326 326 326 326 324 322 321 320 320 320 320 318 317 323 322 317 316 315 315 312 308 310 310 309 312 308 309 309 308 308
339 339 341 339 340 336 335 333 333 332 330 329 327 327 326 324 323 323 322 320 319 319 319 321 318 317 318 317 316 313 312 310 308 305 302 303 303 303 302 306 306 307 309
339 339 339 338 338 336 334 333 332 331 329 329 328 325 324 323 321 322 320 320 319 319 320 319 317 313 311 311 309 307 306 302 302 300 298 298 300 303 304 302 303 305 304
334 336 337 338 338 335 334 332 331 330 329 328 326 324 324 312 306 308 315 318 318 317 316 315 313 309 306 304 303 301 300 299 299 298 297 298 297 297 297 298 296 300 304
330 332 334 335 335 334 332 331 332 329 328 327 325 323 317 306 299 300 304 312 316 314 311 310 310 303 302 302 300 300 300 298 297 296 296 296 296 297 298 297 296 296 296
330 329 330 333 333 333 331 330 328 329 327 326 324 321 313 306 298 298 300 309 313 310 306 303 303 302 302 300 300 300 299 299 299 299 297 297 297 297 299 298 298 296 296
325 325 328 330 331 331 331 329 327 322 324 323 319 318 310 301 297 297 297 311 308 305 303 303 301 300 297 298 298 298 297 297 299 298 299 299 300 300 300 300 299 300 301
320 323 326 328 330 330 330 324 319 320 319 318 318 314 305 301 296 296 298 308 306 305 302 301 300 298 295 294 296 296 296 297 299 300 299 299 298 298 299 298 295 296 296
323 325 329 324 316 315 315 316 318 321 318 316 313 311 305 304 295 295 296 304 303 300 301 297 296 295 294 293 295 296 294 295 296 295 296 299 300 301 300 301 301 296 297
326 326 318 316 315 317 314 318 315 314 316 315 313 309 306 303 299 295 295 300 298 296 296 296 295 293 293 293 293 295 293 294 294 295 298 299 300 300 302 303 304 301 299
326 318 313 315 317 316 314 312 313 314 313 314 313 304 304 302 297 296 295 294 296 296 294 295 295 293 293 293 294 292 293 294 298 298 299 296 295 297 300 302 304 303 304
312 311 311 310 310 311 308 308 309 312 310 308 307 304 301 300 300 297 295 295 296 296 296 295 294 293 293 294 294 294 294 297 298 297 295 295 296 297 298 300 302 302 302
310 308 306 304 302 302 304 306 303 302 306 306 304 302 300 299 297 297 297 298 296 295 295 295 295 294 294 294 296 296 296 297 297 296 295 295 297 297 298 300 299 300 299
306 304 304 301 298 296 296 300 299 296 296 300 300 299 298 296 294 293 293 295 294 293 295 295 294 293 292 293 294 296 296 298 297 294 294 294 296 298 299 302 302 300 297
307 304 302 300 301 303 302 298 292 293 292 292 292 293 296 292 292 292 292 292 291 292 296 293 291 291 290 291 292 294 296 294 295 296 296 298 298 298 299 301 300 299 297
307 303 302 304 305 306 306 302 298 295 293 292 292 292 292 291 292 292 291 291 292 294 295 294 293 293 292 293 294 295 295 298 301 300 299 299 299 299 299 299 299 298 296
305 300 308 306 308 309 309 305 303 300 297 298 293 294 293 292 292 292 292 292 295 294 293 292 292 292 293 294 296 297 299 300 301 300 300 299 300 299 299 299 298 297 296
306 307 309 311 308 307 306 304 302 298 299 297 300 296 295 292 293 293 294 297 293 293 293 293 293 293 293 295 296 298 300 298 297 298 298 300 302 301 299 299 298 292 294
308 303 301 309 309 306 304 302 298 299 298 298 299 299 296 298 298 299 300 300 298 297 296 295 295 295 295 294 294 294 295 297 298 299 301 302 302 301 299 299 298 298 298
311 310 295 310 308 306 302 299 299 300 297 298 299 295 286 298 298 299 299 300 299 298 298 298 298 298 297 297 296 297 298 299 300 302 303 301 302 301 301 301 300 300 300
308 308 309 308 306 303 301 300 300 299 298 298 299 297 289 299 298 299 299 301 301 301 303 302 301 300 299 298 298 300 302 301 302 303 302 304 304 305 303 302 301 302 301
309 309 309 306 303 296 299 300 299 298 298 299 300 298 296 299 300 299 300 302 303 303 304 303 301 301 307 310 310 310 305 303 306 308 308 307 307 307 307 304 304 305 302
309 309 307 304 303 301 300 299 299 294 298 299 300 297 295 297 301 300 302 303 305 304 305 305 307 309 311 312 312 310 307 305 311 311 311 310 309 306 308 307 307 306 305
310 307 305 303 302 300 298 298 299 299 298 299 299 298 296 298 304 301 300 300 304 305 306 308 309 310 310 309 306 306 296 287 300 292 313 311 309 309 308 307 307 307 305
307 306 304 302 301 299 298 298 298 299 299 299 300 301 304 302 302 303 301 302 302 306 307 308 308 310 311 309 304 292 288 288 297 288 297 311 310 311 309 308 306 305 305
Wind_Speed
13 11 11 8 6 6 5 6 6 5 5 5 7 7 6 6 4 4 2 3 4 6 5 4 6 8 9 10 10 10 11 9 12 10 4 4 8 7 8 10 8 8 6
12 12 11 8 7 5 5 5 4 5 5 6 6 5 5 5 4 2 5 5 6 7 7 8 10 9 6 7 7 10 9 9 10 15 9 8 7 10 6 12 9 7 7
12 12 9 7 6 5 4 3 2 2 4 4 3 3 2 2 3 4 5 5 5 7 9 7 6 7 8 9 10 11 11 9 9 7 6 6 7 8 10 8 9 9 9
13 12 12 4 4 4 4 2 0 0 2 2 2 5 5 9 13 13 12 10 10 9 8 7 8 11 10 10 10 12 10 9 10 10 9 8 8 8 7 7 9 4 7
13 9 11 7 6 4 5 4 2 2 1 3 2 3 7 13 11 12 11 11 10 10 9 10 8 11 12 11 7 8 10 7 7 8 8 7 7 5 6 3 7 6 8
14 15 10 8 5 5 5 4 5 4 3 2 2 7 11 9 15 16 14 10 10 9 7 9 10 10 9 7 9 12 13 10 9 8 8 7 7 5 4 3 4 3 4
13 15 12 7 10 7 7 6 6 2 3 2 5 7 11 10 14 16 17 9 10 8 8 7 7 8 9 10 13 14 9 11 12 8 9 7 9 7 6 7 6 5 4
15 14 17 5 8 10 9 8 1 4 4 4 6 6 10 9 14 17 22 10 8 6 4 5 5 4 9 12 13 10 8 8 6 7 8 9 8 8 8 6 6 6 7
18 16 16 15 10 10 11 5 4 4 6 5 6 11 11 11 15 17 18 12 7 8 5 5 7 8 12 13 13 10 10 8 6 8 12 11 12 11 10 4 4 4 4
16 17 12 11 11 13 11 10 4 4 7 5 7 9 10 9 13 15 16 9 9 8 7 8 11 10 10 10 11 10 10 10 12 11 8 7 5 6 5 6 1 2 2
16 6 8 8 9 10 8 8 7 8 3 2 2 11 10 9 9 11 14 10 9 7 6 6 6 11 10 10 11 7 10 11 11 7 8 5 4 5 4 3 3 3 3
12 5 6 5 8 8 11 6 6 4 5 6 1 10 8 9 10 9 6 7 13 6 7 7 8 11 10 9 10 11 13 11 7 6 4 5 6 6 6 6 5 5 4
8 5 6 8 9 8 9 7 4 6 5 8 8 8 7 7 7 5 1 6 11 9 8 9 8 8 9 7 6 13 14 4 6 6 6 5 5 5 7 6 4 3 3
6 7 8 8 9 10 6 6 8 9 8 9 8 7 5 7 9 9 8 8 10 9 7 6 7 6 5 7 6 7 6 6 6 7 5 6 5 4 3 2 1 1 4
7 6 5 7 7 8 11 10 9 12 12 9 8 8 8 8 8 7 9 9 8 8 7 7 7 7 6 6 6 6 5 6 8 5 5 6 5 4 3 3 4 5 5
4 5 3 3 3 5 8 11 13 11 11 12 13 11 8 9 6 7 10 10 8 9 7 6 6 5 5 5 6 7 7 7 5 5 5 5 6 5 5 5 6 6 6
4 5 3 2 4 6 6 9 10 6 9 7 8 10 8 7 10 12 8 6 8 10 9 7 6 6 5 4 4 5 5 6 6 5 5 6 5 4 5 5 5 7 8
3 1 1 2 7 2 10 9 8 6 6 7 7 7 10 10 9 11 13 1 7 6 5 5 6 6 6 7 6 6 6 5 6 5 5 5 5 5 6 7 7 8 7
3 3 5 3 5 8 10 9 9 6 6 5 4 2 6 1 2 4 9 7 5 5 5 5 5 6 6 5 6 6 7 7 6 5 5 5 5 5 6 6 7 7 7
4 7 10 4 7 11 8 9 6 5 7 6 8 8 7 7 7 8 8 7 6 5 5 6 6 5 5 5 4 4 4 4 4 4 5 5 5 5 6 6 6 5 5
4 3 3 4 12 9 10 7 5 6 6 7 8 6 5 6 7 8 8 7 6 5 6 6 5 5 4 4 4 5 5 5 5 5 5 5 5 5 5 5 4 4 3
7 5 7 11 10 9 7 6 6 6 6 6 5 7 6 8 7 7 7 7 6 5 5 6 6 5 4 4 4 4 3 3 4 3 3 3 2 2 5 4 3 3 2
3 6 9 10 9 8 7 7 5 6 6 5 6 9 7 7 8 8 7 7 5 4 5 5 5 5 5 3 2 3 6 5 5 0 2 3 4 4 5 4 4 4 4
8 9 12 10 9 8 7 7 6 5 4 5 8 7 6 5 7 8 8 7 8 7 5 5 4 7 6 9 9 9 9 8 6 5 3 2 3 3 3 4 5 5 5
10 11 10 8 8 8 6 6 5 6 5 6 7 6 4 3 6 6 5 5 7 6 6 4 7 8 9 12 9 11 10 8 8 8 6 3 4 7 5 4 4 4 4
11 10 9 8 8 7 6 6 5 5 5 5 5 4 5 6 3 5 5 4 4 8 8 7 9 11 11 10 12 10 8 9 10 9 7 5 5 5 5 4 7 5 6
Wind_Direction
345 340 341 345 350 11 28 22 36 65 84 87 105 122 134 133 216 216 298 315 255 255 259 269 255 238 248 287 300 314 306 311 298 297 257 271 308 282 296 306 293 281 266
333 346 349 359 344 13 9 47 52 93 90 103 121 145 172 164 144 222 229 272 294 300 299 297 293 288 332 314 296 290 313 323 316 306 311 310 323 339 323 308 302 293 288
347 335 347 351 341 12 1 31 89 124 131 153 153 97 43 23 333 320 310 312 306 297 299 329 355 328 318 328 336 322 326 330 334 341 318 334 322 316 301 285 279 276 278
337 339 325 360 337 318 303 294 284 63 119 147 49 54 41 31 24 3 349 343 330 318 352 1 348 22 9 339 333 335 333 330 313 303 302 296 283 303 304 324 302 268 275
330 336 318 305 287 293 287 271 208 247 164 11 68 80 46 55 28 3 350 326 335 335 326 7 33 42 46 15 351 330 313 303 292 288 296 309 306 326 322 333 318 322 290
329 322 338 323 270 276 286 256 249 228 200 147 66 51 58 56 11 8 359 334 322 338 7 5 358 63 15 355 320 313 302 295 295 292 303 302 314 314 294 311 304 321 324
318 315 315 320 291 274 262 271 287 275 49 63 59 80 68 47 15 4 353 321 314 39 35 21 354 356 4 349 332 320 308 300 285 279 285 287 289 286 300 290 273 244 254
307 311 318 308 275 270 261 257 167 81 9 67 64 89 104 59 25 7 343 306 76 63 37 30 350 24 37 350 325 317 338 315 318 314 312 311 316 315 301 280 303 303 279
310 322 325 330 301 273 277 153 93 89 54 58 74 57 73 53 31 14 348 317 34 355 35 59 15 21 13 352 315 336 330 325 334 355 341 315 297 287 274 300 271 277 276
341 347 7 34 61 50 24 9 349 110 78 92 103 110 103 63 42 22 2 354 8 0 29 114 64 25 2 344 323 345 329 346 345 329 319 308 303 326 267 264 16 262 279
332 11 59 56 74 73 73 63 17 30 43 87 152 95 72 50 63 41 13 10 5 358 355 12 39 15 352 337 323 335 343 325 319 310 288 275 277 288 298 240 230 238 298
337 64 83 83 83 75 65 47 23 346 234 221 158 120 97 90 43 41 11 6 4 354 17 10 4 354 334 327 322 339 315 314 306 297 341 9 339 338 337 330 318 301 297
56 54 45 51 75 62 56 36 9 294 344 357 22 42 51 38 26 35 251 39 25 5 13 2 342 341 336 334 351 311 299 308 326 348 5 336 328 316 314 325 339 346 352
41 46 55 55 41 34 40 55 37 18 345 38 23 39 35 44 28 9 358 17 28 19 4 6 359 329 314 331 345 357 338 329 343 16 346 321 312 322 321 337 328 3 72
81 62 52 66 79 71 56 35 68 51 32 29 31 30 16 38 32 354 6 19 8 0 357 26 22 10 2 358 357 359 330 350 18 352 328 328 330 339 352 359 50 64 74
92 82 76 114 127 147 111 88 60 71 59 51 41 35 85 58 10 16 15 355 352 341 37 25 8 358 352 347 353 344 1 0 348 319 318 338 2 11 20 47 51 56 69
84 91 119 201 219 233 162 133 124 99 91 91 70 62 51 25 22 1 332 317 27 12 21 12 354 344 340 333 332 339 342 350 328 348 4 359 8 18 33 45 54 66 64
97 181 101 201 266 294 67 85 77 82 77 88 77 50 53 28 6 348 336 258 34 18 5 349 344 341 344 347 349 351 349 349 357 4 8 12 21 37 43 53 61 69 67
189 241 216 218 41 46 76 74 72 72 76 74 63 98 45 314 319 347 8 51 19 354 348 343 342 340 340 338 343 348 358 7 3 4 5 14 36 41 69 66 68 52 62
191 248 279 32 78 77 76 74 83 79 77 69 58 41 14 13 23 27 30 22 12 4 346 339 339 344 345 341 337 337 344 1 2 7 23 33 38 49 63 63 61 68 60
192 117 322 67 68 62 69 79 86 78 84 74 67 48 352 20 25 25 22 18 7 356 349 345 346 349 348 347 353 359 7 12 13 19 31 45 48 70 76 80 83 79 56
34 5 49 58 70 70 77 84 79 81 82 70 68 84 11 31 27 18 12 8 356 351 341 347 1 7 354 351 354 8 357 5 17 21 42 42 71 96 125 124 128 145 157
120 81 90 81 89 93 79 81 79 84 89 64 65 59 31 20 33 23 10 5 356 357 353 8 359 345 346 346 13 26 20 5 339 222 78 122 104 52 81 91 106 84 91
64 63 65 69 64 80 77 90 94 62 71 65 70 66 35 21 32 20 14 11 10 8 2 355 355 16 11 30 32 39 27 4 347 355 56 14 11 188 97 66 111 59 79
67 68 72 69 74 76 85 92 88 91 80 69 68 68 37 12 28 47 16 352 10 8 2 345 26 26 34 46 27 15 5 341 344 330 347 16 359 26 59 60 50 93 91
72 75 75 74 77 77 73 83 76 80 76 77 72 58 52 49 33 40 22 346 340 10 17 17 21 20 16 30 10 350 341 338 336 332 327 359 67 49 42 36 75 59 80